TimePST,TemperatureF,Dew PointF,Humidity,Sea Level PressureIn,VisibilityMPH,Wind Direction,Wind SpeedMPH,Gust SpeedMPH,PrecipitationIn,Events,Conditions,WindDirDegrees,DateUTC
12:15 AM,39.2,24.8,56,30.09,10.0,Calm,Calm,-,N/A,,Clear,0,2013-01-22 08:15:00
12:35 AM,39.2,24.8,56,30.09,10.0,NW,3.5,-,N/A,,Clear,320,2013-01-22 08:35:00
12:55 AM,39.2,24.8,56,30.09,10.0,Calm,Calm,-,N/A,,Clear,0,2013-01-22 08:55:00
1:15 AM,37.4,23.0,56,30.09,10.0,Calm,Calm,-,N/A,,Clear,0,2013-01-22 09:15:00
1:35 AM,37.4,24.8,60,30.09,10.0,Calm,Calm,-,N/A,,Clear,0,2013-01-22 09:35:00
1:55 AM,37.4,26.6,65,30.09,10.0,Calm,Calm,-,N/A,,Clear,0,2013-01-22 09:55:00
2:15 AM,37.4,24.8,60,30.09,10.0,Calm,Calm,-,N/A,,Clear,0,2013-01-22 10:15:00
2:35 AM,37.4,24.8,60,30.09,10.0,Calm,Calm,-,N/A,,Clear,0,2013-01-22 10:35:00
2:55 AM,35.6,24.8,65,30.09,10.0,Calm,Calm,-,N/A,,Clear,0,2013-01-22 10:55:00
3:15 AM,35.6,24.8,65,30.09,10.0,Calm,Calm,-,N/A,,Clear,0,2013-01-22 11:15:00
3:35 AM,35.6,24.8,65,30.09,10.0,Calm,Calm,-,N/A,,Clear,0,2013-01-22 11:35:00
3:55 AM,35.6,24.8,65,30.09,10.0,Calm,Calm,-,N/A,,Clear,0,2013-01-22 11:55:00
4:15 AM,35.6,24.8,65,30.09,10.0,Calm,Calm,-,N/A,,Clear,0,2013-01-22 12:15:00
4:35 AM,35.6,24.8,65,30.09,10.0,Calm,Calm,-,N/A,,Clear,0,2013-01-22 12:35:00
4:55 AM,33.8,24.8,70,30.09,10.0,Calm,Calm,-,N/A,,Clear,0,2013-01-22 12:55:00
5:15 AM,33.8,24.8,70,30.09,10.0,Calm,Calm,-,N/A,,Clear,0,2013-01-22 13:15:00
6:47 AM,33.8,26.6,75,30.11,25.0,Calm,Calm,-,N/A,,Partly Cloudy,0,2013-01-22 14:47:00
7:55 AM,37.4,28.4,70,30.11,25.0,Calm,Calm,-,N/A,,Partly Cloudy,0,2013-01-22 15:55:00
8:47 AM,44.6,26.6,49,30.12,25.0,Calm,Calm,-,N/A,,Partly Cloudy,0,2013-01-22 16:47:00
12:52 PM,82.4,10.4,7,30.02,25.0,Calm,Calm,-,N/A,,Partly Cloudy,0,2013-01-22 20:52:00
1:47 PM,84.2,14.0,7,30.02,25.0,Variable,5.8,-,N/A,,Mostly Cloudy,0,2013-01-22 21:47:00
8:15 PM,53.6,28.4,38,30.09,10.0,Calm,Calm,-,N/A,,Clear,0,2013-01-23 04:15:00
8:55 PM,51.8,28.4,41,30.09,10.0,Calm,Calm,-,N/A,,Clear,0,2013-01-23 04:55:00
9:15 PM,51.8,30.2,44,30.09,10.0,Calm,Calm,-,N/A,,Clear,0,2013-01-23 05:15:00
9:55 PM,50.0,30.2,47,30.10,10.0,Calm,Calm,-,N/A,,Clear,0,2013-01-23 05:55:00
10:15 PM,51.8,30.2,44,30.10,10.0,Calm,Calm,-,N/A,,Clear,0,2013-01-23 06:15:00
10:35 PM,48.2,28.4,46,30.09,10.0,Calm,Calm,-,N/A,,Clear,0,2013-01-23 06:35:00
10:55 PM,48.2,28.4,46,30.09,10.0,WNW,3.5,-,N/A,,Clear,300,2013-01-23 06:55:00
11:15 PM,48.2,28.4,46,30.09,10.0,WNW,3.5,-,N/A,,Clear,300,2013-01-23 07:15:00
11:35 PM,48.2,30.2,50,30.09,10.0,Calm,Calm,-,N/A,,Clear,0,2013-01-23 07:35:00
11:55 PM,46.4,28.4,50,30.08,10.0,Calm,Calm,-,N/A,,Clear,0,2013-01-23 07:55:00